Content
SEND FEEDBACK

Daily
Averages
Monthly
Summary
United States of America

BAYSIDE, NEW YORK


Home > North America > United States > New York
Elevation: 11 feet     Latitude: 40 46N     Longitude: 073 54W

WEATHER
 
SELECT A DAY
Number of Records: 193,997;   Date Range: 1/1/95 - 10/23/14
 
SHARE

PRINT THIS DATA

[ ← Previous Day ]
WEATHER ALMANAC - FEBRUARY 18, 2013
[ Next Day → ]
[ °C ]   °F
Weather ElementAverageHighLow
Temperature28 °F36 °F (3:51 pm)19 °F (3:51 am)
Dewpoint5.1 °F10 °F (10:51 pm)3 °F (1:51 am)
Humidity39.1 %52 % (3:51 am)26 % (3:51 pm)
Barometer30.18 in30.24 in (10:51 am)30.03 in (1:51 am)
Wind Speed15.7 mph28.8 mph (6:51 am)
Wind Gust40.3 mph (3:51 am)
Weather ElementAverage
Visibility10 mi
Wind DirectionW (275.2 °)

Weather ElementTotal
Precipitation---
Heating Degree Days37.5 (Base 65)
Averaged from 23 records on February 18, 2013
WEATHER CONDITIONS BREAKOUT
WIND DIRECTION BREAKOUT
WEATHER BY HOUR - FEBRUARY 18, 2013
[ °C ]   °F
Local TimeTemperatureDewpointHumidityBarometerVisibilityWind DirectionWind SpeedGust SpeedPrecipitationEventsConditions
1:51 AM19.9 °F3.0 °F48 %30.03 in10.0 miNW (310°)21.9 mph34.5 mphPartly Cloudy
2:51 AM19.4 °F3.2 °F49 %30.05 in10.0 miWNW (300°)21.9 mph34.5 mphClear
3:51 AM19.0 °F3.9 °F52 %30.07 in10.0 miWNW (300°)26.5 mph40.3 mphClear
4:51 AM19.0 °F3.9 °F52 %30.10 in10.0 miNW (310°)25.3 mph35.7 mphClear
5:51 AM19.0 °F3.9 °F52 %30.14 in10.0 miWNW (290°)24.2 mph29.9 mphClear
6:51 AM19.9 °F5.0 °F52 %30.17 in10.0 miWNW (300°)28.8 mph34.5 mphClear
7:51 AM19.0 °F3.9 °F52 %30.19 in10.0 miWNW (290°)20.7 mph32.2 mphClear
8:51 AM19.9 °F3.9 °F50 %30.22 in10.0 miWNW (290°)15.0 mphClear
9:51 AM23.0 °F3.0 °F42 %30.23 in10.0 miWNW (300°)15.0 mph19.6 mphClear
10:51 AM26.1 °F5.0 °F41 %30.24 in10.0 miWNW (300°)19.6 mph29.9 mphClear
11:51 AM28.9 °F6.1 °F38 %30.23 in10.0 miWNW (290°)13.8 mph24.2 mphClear
12:51 PM30.9 °F3.9 °F32 %30.22 in10.0 miWest (270°)18.4 mph24.2 mphClear
1:51 PM33.1 °F3.9 °F29 %30.19 in10.0 miNW (310°)15.0 mph20.7 mphPartly Cloudy
2:51 PM35.1 °F3.9 °F27 %30.18 in10.0 miWNW (290°)13.8 mph20.7 mphPartly Cloudy
3:51 PM36.0 °F3.9 °F26 %30.18 in10.0 miWest (280°)9.2 mph17.3 mphScattered Clouds
4:51 PM36.0 °F3.9 °F26 %30.19 in10.0 miWest (260°)11.5 mphScattered Clouds
5:51 PM35.1 °F3.9 °F27 %30.19 in10.0 miWSW (250°)8.1 mphPartly Cloudy
6:51 PM35.1 °F5.0 °F28 %30.21 in10.0 miWest (260°)10.4 mphPartly Cloudy
7:51 PM34.0 °F8.1 °F34 %30.22 in10.0 miWest (260°)6.9 mphPartly Cloudy
8:51 PM34.0 °F9.0 °F35 %30.22 in10.0 miSW (230°)11.5 mph17.3 mphScattered Clouds
9:51 PM34.0 °F9.0 °F35 %30.22 in10.0 miWSW (240°)10.4 mphMostly Cloudy
10:51 PM34.0 °F10.0 °F37 %30.22 in10.0 miSSW (210°)8.1 mphMostly Cloudy
11:51 PM34.0 °F9.0 °F35 %30.21 in10.0 miSouth (190°)5.8 mphMostly Cloudy
Hourly data recorded from KLGA, located miles away from Bayside, New York







STORIES FROM OUR PARTNERS